Location: George Washington National Forest Helicopter Landing Site
(38.6463°N, 79.0851°W)
Time: 15:56:00
(UTC-04:00)

Tiros 1 - Pass Details

Date: 31 August 2019
Orbit: 631 x 664 km, 48.4° (Epoch: 14 September)

Event Time Altitude Azimuth Distance (km) Brightness Sun altitude
Rises 21:37:20 0° 240° (WSW) 2,912 10.9 -20.7°
Reaches altitude 10° 21:39:39 10° 242° (WSW) 2,004 10.1 -21.1°
Maximum altitude 21:44:16 77° 329° (NNW) 648 7.1 -21.9°
Enters shadow 21:46:21 32° 50° (NE) 1,078 8.1 -22.2°
